"Pseudo-MPEC" for P10U32U

Created 2019 Nov 10 16:07:15 UT using Find_Orb

Click here for an explanation of pseudo-MPECs

 
 Astrometry: 
     P10U32U  C2019 11 03HL5!BtMK$WxL8;tA=^xo0BqeAstrometryvLUoredacted;mr@-sF51
     P10U32U  C2019 11 03b\Fg:WeAp;kclickxTimd_i[Jfa5URSO_khereuMX6^wW.XrVLC#F51
     P10U32U  C2019 11 03j)m%-for3g3HveVexplanationK%\pcN6%G0]@09FTq77dDw]Xy3F51

Station data:
(F51) Pan-STARRS 1, Haleakala  (N20.707235 W156.255910)  US/Hawaii.
   Observers N. Primak, A. Schultz, S. Watters, J. Thiel, T. Goggia. Measurer
   PS1 Science Consortium. 1.8-m Ritchey-Chrétien + CCD.

Orbital elements:  P10U32U
   Perihelion 2019 May 29.138494 +/- 326 TT =  3:19:25 (JD 2458632.638494)
Epoch 2019 Nov  3.0 TT = JDT 2458790.5   Earth MOID: 0.3540   Ma: 0.0406
M  39.05300575 +/- 70               (J2000 ecliptic)          AutoNEOCP
n   0.24738776 +/- 0.195            Peri.  152.28331 +/- 60
a   2.51314318 +/- 1.32             Node   163.66559 +/- 60
e   0.4617397 +/- 0.271             Incl.   12.03387 +/- 58
P   3.98                   H 20.4   G  0.15   U 11.7  SR
q 1.35272510 +/- 1.08    Q 3.67356126 +/- 29.4
From 3 observations 2019 Nov. 3 (48.6 min); mean residual 0".04
Residuals in arcseconds: 
191103 F51  .02-  .02+    191103 F51  .06+  .05-    191103 F51  .04-  .03+    

Ephemerides (geocentric):
Date (UTC) HH   RA              Dec         delta   r     elong  mag " sig PA
---- -- -- --  -------------   -----------  ------ ------ -----  --- ---- ---
2019 11 10 16  03 27 14.950   -02 52 55.71  1.0652 2.0210 159.0 22.7  25d   2
2019 11 10 17  03 27 12.106   -02 53 07.71  1.0654 2.0213 159.0 22.7  25d   2
2019 11 10 18  03 27 09.264   -02 53 19.68  1.0657 2.0215 159.0 22.7  25d   2
2019 11 10 19  03 27 06.421   -02 53 31.60  1.0659 2.0217 159.0 22.8  25d   2
2019 11 10 20  03 27 03.580   -02 53 43.50  1.0662 2.0220 159.0 22.8  25d   2
2019 11 10 21  03 27 00.739   -02 53 55.35  1.0664 2.0222 159.0 22.8  25d   2
2019 11 10 22  03 26 57.899   -02 54 07.17  1.0667 2.0224 159.0 22.8  25d   2
2019 11 10 23  03 26 55.060   -02 54 18.96  1.0669 2.0227 159.0 22.8  25d   2
2019 11 11 00  03 26 52.221   -02 54 30.70  1.0671 2.0229 159.0 22.8  25d   2
2019 11 11 01  03 26 49.383   -02 54 42.42  1.0674 2.0231 159.0 22.8  25d   2
2019 11 11 02  03 26 46.546   -02 54 54.09  1.0676 2.0234 159.0 22.8  25d   2
2019 11 11 03  03 26 43.709   -02 55 05.73  1.0679 2.0236 159.0 22.8  25d   2
2019 11 11 04  03 26 40.873   -02 55 17.33  1.0681 2.0238 159.0 22.8  25d   2
2019 11 11 05  03 26 38.038   -02 55 28.89  1.0684 2.0241 159.0 22.8  25d   2
2019 11 11 06  03 26 35.203   -02 55 40.42  1.0686 2.0243 159.0 22.8  25d   2
2019 11 11 07  03 26 32.370   -02 55 51.91  1.0689 2.0246 159.0 22.8  25d   2
2019 11 11 08  03 26 29.537   -02 56 03.37  1.0691 2.0248 159.0 22.8  25d   2
2019 11 11 09  03 26 26.704   -02 56 14.79  1.0694 2.0250 159.0 22.8  25d   2
2019 11 11 10  03 26 23.873   -02 56 26.17  1.0696 2.0253 159.0 22.8  25d   2
2019 11 11 11  03 26 21.042   -02 56 37.52  1.0699 2.0255 159.0 22.8  25d   2
2019 11 11 12  03 26 18.212   -02 56 48.83  1.0701 2.0257 159.0 22.8  25d   2
2019 11 11 13  03 26 15.383   -02 57 00.10  1.0704 2.0260 159.0 22.8  25d   2
2019 11 11 14  03 26 12.554   -02 57 11.33  1.0706 2.0262 159.0 22.8  25d   2
2019 11 11 15  03 26 09.726   -02 57 22.53  1.0709 2.0264 159.0 22.8  25d   2
2019 11 11 16  03 26 06.900   -02 57 33.70  1.0711 2.0267 159.0 22.8  25d   2
2019 11 11 17  03 26 04.073   -02 57 44.82  1.0714 2.0269 159.0 22.8  25d   2
2019 11 11 18  03 26 01.248   -02 57 55.91  1.0716 2.0271 159.0 22.8  25d   2
2019 11 11 19  03 25 58.424   -02 58 06.97  1.0719 2.0274 159.0 22.8  25d   2
2019 11 11 20  03 25 55.600   -02 58 17.99  1.0721 2.0276 159.0 22.8  25d   2
2019 11 11 21  03 25 52.777   -02 58 28.97  1.0724 2.0278 159.0 22.8  25d   2
2019 11 11 22  03 25 49.955   -02 58 39.91  1.0726 2.0281 159.0 22.8  25d   2
2019 11 11 23  03 25 47.134   -02 58 50.82  1.0729 2.0283 159.0 22.8  25d   2
2019 11 12 00  03 25 44.313   -02 59 01.69  1.0731 2.0285 159.0 22.8  25d   2
2019 11 12 01  03 25 41.494   -02 59 12.52  1.0734 2.0288 159.0 22.8  25d   2
2019 11 12 02  03 25 38.675   -02 59 23.32  1.0736 2.0290 159.0 22.8  25d   2
2019 11 12 03  03 25 35.857   -02 59 34.08  1.0739 2.0293 159.0 22.8  25d   2
2019 11 12 04  03 25 33.040   -02 59 44.80  1.0742 2.0295 159.0 22.8  25d   2
2019 11 12 05  03 25 30.224   -02 59 55.49  1.0744 2.0297 159.0 22.8  25d   2
2019 11 12 06  03 25 27.409   -03 00 06.14  1.0747 2.0300 159.0 22.8  25d   2
2019 11 12 07  03 25 24.595   -03 00 16.76  1.0749 2.0302 159.0 22.8  25d   2
2019 11 12 08  03 25 21.781   -03 00 27.34  1.0752 2.0304 159.0 22.8  25d   2
2019 11 12 09  03 25 18.969   -03 00 37.88  1.0754 2.0307 159.0 22.8  25d   2
2019 11 12 10  03 25 16.157   -03 00 48.38  1.0757 2.0309 159.0 22.8  25d   2
2019 11 12 11  03 25 13.347   -03 00 58.85  1.0760 2.0311 159.0 22.8  25d   2
2019 11 12 12  03 25 10.537   -03 01 09.28  1.0762 2.0314 159.0 22.8  25d   2
2019 11 12 13  03 25 07.728   -03 01 19.68  1.0765 2.0316 159.0 22.8  25d   2
2019 11 12 14  03 25 04.920   -03 01 30.04  1.0767 2.0318 158.9 22.8  25d   2
2019 11 12 15  03 25 02.113   -03 01 40.36  1.0770 2.0321 158.9 22.8  25d   2